星链-31466 (STARLINK-31466 )

导读

STARLINK-31466是美国SpaceX星链星座组网卫星,于北京时间2024年4月5日发射入轨,属于星链低轨互联网星座扩容项目。该卫星运行于近地轨道,主要为全球偏远地区、远洋航行等场景提供高速低延迟卫星互联网接入服务,也服务于部分特殊商业与民用通信需求。

基本信息
目录编号:
59420
目录名称:
STARLINK-31466
国际标识:
2024-064Y
轨道中心:
EARTH
卫星名称:
星链-31466
卫星全名:
星链-31466 (STARLINK-31466 )
卫星状态:
在轨 (已飞行804 天)
发射日期:
2024-04-05 UTC
国别 :
美国 (US)
星等 :
--
轨道信息
数据来源 国际轨道数据 AOE轨道数据
星历时间 2026-06-17T03:53:03+0800
1天前
查看轨道信息
2026-06-15T07:00:00+0800
3天前
查看轨道信息
半长轴 6861.228km 6861.213km
偏心率 0.0001396 0.0000047
轨道倾角 42.996° 42.998°
近地点辐角 281.731° 179.941°
升交点赤经 216.641° 227.210°
平近点角 78.339° 323.540°
近地点 482.133km 483.043km
远地点 484.049km 483.109km
周期 94.268分钟 94.267分钟
每日圈数 15.275662 15.275712
详细信息
固有亮度:
5
最大亮度:
0.3
卫星平台:
Starlink v2.0 mini
覆盖范围:
全球
运营商:
太空探索技术公司
运营商所在国:
美国
制造商(研发单位):
太空探索技术公司
制造商所在国:
美国
使用方式:
暂无
卫星简介
星链(Starlink)计划是由太空探索技术公司(SpaceX)提出的一个巨型低轨卫星互联网星座项目,计划在2019年至2024年间在太空搭建由约1.2万颗卫星组成的“星链”网络,其中1584颗将部署在地球上空550千米处的近地轨道,并从2020年开始工作。该卫星仍在工作。
2D轨道图
3D轨道图
轨道高度分析图
轨道倾角分析图
轨道综合分析图
查看轨道综合分析图